Theta_e
325 325 326 326 327 329 329 330 331 331 331 332 332 332 331 331 331 330 330 331 331 333 333 332 333 334 334 333 333 333 333 333 332 332 332 332 332 332 333 333 332 332 333 333 333 332 333 334 332 333 334 333 331 331 330 332 333 332 330 330 331 331 330 330 330 331 330 328 328 329 327 327 326 325 325 324 322 322 324 323 321 322 324 323 323
324 324 325 326 326 327 328 329 330 330 330 331 331 331 330 330 329 329 330 331 332 332 332 332 333 333 334 334 334 334 333 333 332 332 332 332 332 332 331 331 332 332 332 333 334 333 334 333 332 332 333 331 330 331 331 332 333 331 330 330 331 331 329 329 330 331 331 329 328 328 326 326 325 325 325 324 322 322 323 322 321 322 322 322 323
323 323 324 325 325 326 327 328 329 329 330 330 331 330 330 330 330 330 330 330 332 332 331 332 332 333 334 334 334 333 333 333 333 332 332 332 332 331 330 331 332 332 332 333 333 333 333 333 332 331 331 330 330 330 331 332 331 330 330 330 330 329 328 328 329 329 330 329 328 326 325 325 324 325 325 324 323 322 322 321 321 321 319 320 322
322 323 323 324 325 325 326 327 329 329 329 330 331 330 330 330 330 330 330 330 332 332 332 332 332 333 334 333 333 333 332 332 332 332 332 331 331 330 329 331 331 331 332 333 331 331 332 332 332 332 331 330 330 330 330 331 330 329 330 330 330 329 328 327 327 328 328 328 326 324 324 324 323 323 324 323 322 321 322 320 319 320 319 320 322
322 323 323 323 324 324 325 327 328 329 328 330 330 330 329 330 329 329 330 330 331 331 331 332 332 333 333 333 333 333 331 331 331 331 332 331 330 330 329 329 330 331 332 331 330 329 330 330 331 331 331 331 330 330 330 330 330 330 330 330 330 330 329 328 326 326 325 325 324 323 323 323 322 322 321 321 321 320 321 320 319 319 318 317 321
322 322 322 323 323 324 324 326 328 328 328 328 329 329 329 329 329 329 330 330 329 330 330 330 331 333 333 332 332 333 332 331 331 331 331 330 330 330 329 328 329 331 331 330 329 329 329 331 331 330 331 331 330 330 330 330 330 330 330 329 329 328 329 328 326 325 324 324 324 324 324 323 323 322 321 320 320 319 319 319 318 318 317 316 319
322 322 322 322 323 323 324 326 327 327 327 327 327 328 328 328 329 329 329 329 329 329 329 329 330 332 332 331 331 332 332 331 331 330 330 329 329 329 328 328 328 329 330 329 329 329 329 330 331 331 331 330 330 331 332 331 330 329 329 329 328 327 328 328 326 326 326 326 324 324 325 324 323 322 322 321 321 319 319 318 317 318 318 316 317
321 322 322 322 322 323 323 324 325 326 326 326 327 327 328 327 328 328 328 328 328 329 329 329 329 330 329 329 330 330 330 330 330 329 328 328 328 327 327 327 327 328 329 329 328 329 329 329 330 332 331 330 331 332 332 331 330 329 329 328 327 327 327 326 327 326 326 327 326 325 325 325 324 324 323 322 322 320 319 319 318 318 318 317 316
320 321 321 321 321 322 322 322 322 322 324 324 324 325 325 326 326 327 327 326 327 328 328 328 327 327 328 327 327 328 328 328 328 328 327 327 326 326 326 326 327 328 330 330 331 331 330 329 330 331 331 330 330 330 330 330 329 328 328 327 327 327 326 326 327 327 326 327 326 325 325 326 326 325 324 323 322 322 320 320 319 318 318 317 317
320 320 320 320 320 320 320 319 319 319 320 320 321 321 322 323 324 324 324 325 325 326 327 327 326 326 327 326 327 327 327 326 327 327 326 325 325 326 326 326 327 328 329 330 331 331 330 330 331 331 331 330 329 328 328 329 329 329 328 327 326 326 327 327 327 325 326 327 325 322 323 325 325 325 325 324 323 323 322 321 320 319 319 319 318
319 319 319 319 318 318 318 317 316 316 317 317 317 317 318 319 319 320 321 321 323 324 324 325 325 325 325 325 325 325 324 325 326 326 325 324 325 325 325 326 327 328 327 328 330 331 330 330 331 330 329 329 329 329 329 329 329 328 328 327 327 326 326 327 327 325 325 327 326 323 323 324 325 324 324 325 324 324 324 324 321 320 321 321 320
319 319 318 318 317 317 316 315 315 315 315 315 315 315 315 315 315 315 316 317 319 321 322 322 322 323 322 322 322 322 322 322 324 325 325 324 325 324 324 325 325 325 325 326 328 329 329 329 329 328 327 326 326 326 327 326 326 326 326 327 327 326 326 326 327 326 325 325 326 325 324 324 324 323 322 323 323 324 325 325 323 322 322 322 322
318 318 317 317 316 316 315 314 314 314 314 313 313 313 313 312 312 312 313 314 316 317 318 319 320 319 319 318 319 319 319 320 321 323 324 323 323 323 323 324 323 323 324 324 326 328 328 328 328 325 323 321 321 321 320 321 321 321 323 324 323 323 324 325 326 326 326 325 324 324 325 325 324 323 323 323 323 324 324 324 323 322 322 321 321
317 316 316 315 315 315 314 314 313 313 313 313 313 313 312 311 311 310 311 312 312 313 314 315 316 317 316 316 316 317 317 318 318 319 320 319 319 321 323 324 324 325 326 326 326 327 328 328 327 323 322 322 322 321 319 320 321 322 324 324 321 319 320 321 322 322 324 325 324 324 326 326 325 324 323 323 324 324 323 322 321 321 321 320 320
316 315 314 314 314 314 314 313 313 313 313 313 312 312 311 310 309 309 309 309 310 310 311 312 313 315 315 315 316 316 316 317 318 318 318 319 321 323 325 325 324 324 325 325 325 326 327 327 326 324 324 324 323 323 324 324 324 325 326 324 319 318 318 319 320 321 323 326 326 325 326 325 325 324 323 323 325 324 323 322 322 322 321 320 320
314 314 313 313 313 313 313 313 312 312 312 312 312 311 310 309 308 308 308 308 308 308 309 309 310 312 314 315 315 316 317 318 319 319 320 322 323 323 322 322 321 321 321 322 323 324 325 325 325 325 324 324 324 324 325 324 324 324 325 323 320 319 319 319 321 322 324 325 324 323 322 322 322 321 321 322 323 323 323 323 322 322 321 321 320
314 313 313 312 312 313 313 313 312 312 312 311 311 310 309 308 308 307 307 307 307 307 307 307 308 310 313 313 313 315 316 317 318 320 321 322 322 321 319 318 318 318 318 318 320 322 323 323 323 322 321 323 324 323 323 323 323 323 324 324 323 321 319 319 320 321 321 321 321 320 320 320 320 319 319 319 319 320 322 321 320 319 319 319 319
313 312 312 312 312 312 312 312 312 311 311 311 310 310 309 307 307 306 306 305 305 305 305 305 307 309 311 311 311 312 314 314 315 317 319 319 319 318 317 316 316 316 316 316 317 318 319 320 320 318 319 321 323 323 323 322 322 322 322 323 322 321 319 318 318 319 319 319 319 318 319 319 318 318 318 317 317 318 320 320 319 318 317 317 318
313 312 311 311 310 310 310 311 311 311 310 310 309 308 308 307 306 306 305 305 305 304 304 304 305 307 308 309 310 311 312 312 313 314 315 316 316 316 315 315 315 315 315 315 315 315 316 317 317 317 318 319 320 321 321 321 321 321 321 321 321 320 319 318 318 319 318 318 317 317 317 317 316 316 316 315 315 316 317 317 317 317 316 316 316
312 311 310 310 310 310 309 309 310 310 309 308 307 306 306 305 305 305 305 305 304 304 303 303 303 304 305 306 308 309 309 310 311 312 313 313 313 313 313 313 313 313 313 313 313 313 313 314 315 315 315 316 316 316 317 318 320 320 320 320 320 319 318 318 318 318 318 317 317 316 316 315 315 314 314 313 313 313 314 314 315 315 315 314 314
311 310 310 309 309 309 308 308 307 307 307 306 305 304 304 304 304 305 305 305 304 304 303 302 302 301 301 303 304 305 307 307 308 309 311 311 311 311 312 312 311 311 312 312 312 312 312 312 313 313 314 314 314 315 315 316 318 318 317 318 318 317 317 317 316 316 316 315 315 314 314 313 313 312 311 311 311 311 311 311 311 312 312 312 312
310 309 309 308 308 307 307 307 306 306 305 304 304 303 302 301 302 303 304 304 303 304 303 302 301 300 299 300 300 301 304 305 305 306 308 309 310 311 311 311 311 311 310 310 310 309 308 309 309 309 310 312 312 313 313 313 314 314 314 315 315 314 314 314 314 313 313 312 312 312 312 311 311 310 310 309 309 309 309 309 309 309 309 308 309
309 309 308 307 306 305 305 304 304 304 304 303 302 302 301 300 300 300 301 301 301 302 302 302 301 300 298 298 298 299 300 301 302 303 304 305 307 308 309 309 310 310 308 306 306 305 305 305 305 305 306 307 307 307 307 308 308 308 308 309 309 309 309 309 310 310 310 310 310 309 310 310 309 309 309 308 308 308 308 307 307 307 306 306 306
307 307 306 305 305 304 303 303 303 302 302 302 301 301 301 301 301 301 300 300 301 300 301 301 301 300 299 298 298 298 298 299 299 300 301 301 302 303 304 306 307 307 305 303 303 303 304 304 303 303 303 304 304 303 303 303 303 303 303 304 305 305 305 305 306 306 307 307 307 307 308 308 308 307 307 307 307 306 306 306 306 305 305 305 304
304 304 304 303 303 303 303 303 303 303 302 302 301 300 300 301 301 301 301 301 301 301 301 301 301 300 300 299 298 298 297 298 298 299 299 299 300 300 301 302 302 303 303 302 302 302 303 303 302 302 302 302 302 301 301 301 301 302 303 303 303 303 303 303 303 304 305 306 306 306 306 306 306 306 306 306 305 305 305 305 305 304 304 303 303
302 302 301 301 301 301 301 301 301 302 302 302 302 301 300 300 300 300 300 301 301 301 300 301 301 300 300 301 300 299 297 297 297 298 298 298 298 299 299 300 300 301 301 302 302 302 302 302 302 301 301 301 301 301 301 301 301 302 302 302 301 301 302 303 304 304 304 305 304 304 305 305 305 305 305 305 305 304 304 304 304 303 303 303 303
301 301 301 301 300 300 300 300 299 299 300 301 301 301 300 299 298 299 299 299 300 301 300 301 301 300 299 300 301 299 298 297 298 298 298 298 298 298 299 299 300 300 300 301 302 302 302 301 301 301 301 301 301 301 301 301 301 300 300 300 300 301 302 303 304 303 303 303 303 303 304 304 304 304 303 303 303 303 303 303 303 302 302 303 302
302 301 301 300 300 300 300 300 300 299 298 298 299 300 300 299 297 297 297 297 299 299 300 300 301 300 299 299 301 300 298 297 298 298 298 299 298 299 299 300 300 300 301 301 302 302 302 301 301 301 301 301 301 301 301 301 301 301 300 300 301 301 301 302 303 303 303 303 303 303 303 303 303 303 302 302 302 302 302 302 302 302 302 302 302
302 302 301 301 301 301 301 301 301 300 299 298 296 296 297 298 297 296 295 295 296 297 298 299 300 300 299 298 299 299 297 296 296 297 298 298 299 300 300 300 301 301 301 302 302 302 302 301 301 301 301 301 301 301 301 301 301 301 301 301 301 301 301 301 302 302 302 302 302 302 302 302 302 302 302 301 301 301 301 301 301 301 301 301 301
301 301 301 301 301 301 301 301 301 301 301 300 298 296 296 296 297 296 295 295 295 296 296 297 298 299 299 297 297 296 296 295 295 296 296 297 298 298 299 299 300 300 300 301 301 302 302 302 301 301 301 301 301 301 301 301 300 300 300 300 300 300 300 300 300 300 300 301 301 301 301 301 301 301 301 301 300 299 300 301 301 301 301 301 301
301 301 300 300 301 301 301 301 300 300 301 301 301 299 298 297 296 297 297 296 296 296 296 296 296 297 298 298 297 296 295 295 296 296 296 296 296 297 297 297 298 298 299 300 300 300 300 300 301 301 300 300 301 301 301 301 300 300 300 299 299 299 299 299 299 299 299 300 300 300 300 300 300 300 300 300 300 300 300 300 300 300 300 300 300
302 301 301 300 300 301 301 300 300 300 300 300 301 301 300 299 298 297 297 297 297 297 297 296 296 296 296 297 297 296 296 296 296 297 297 296 296 297 296 296 297 297 298 299 299 299 299 300 300 300 300 300 301 301 301 301 301 301 300 299 299 299 299 299 299 299 299 299 299 300 300 300 300 299 299 299 299 299 299 299 299 299 299 300 299
301 301 301 301 301 300 300 300 300 300 300 300 300 300 301 301 300 299 298 297 297 297 297 296 296 296 296 295 296 296 296 297 297 297 297 297 297 297 297 297 297 298 299 299 299 300 300 300 300 300 300 300 300 301 301 301 301 301 301 300 300 300 299 299 299 299 298 298 299 299 299 299 298 299 299 298 298 299 298 298 298 298 299 299 298
299 299 300 301 301 300 300 300 300 300 299 299 299 299 300 300 300 300 300 299 299 298 298 297 296 296 296 295 295 295 296 296 297 297 297 297 297 298 298 298 298 298 299 299 300 300 300 300 300 300 300 300 300 300 300 300 300 300 300 300 300 299 299 298 298 298 298 298 298 298 298 298 298 298 298 298 298 298 298 298 298 298 298 298 298
300 299 299 300 300 300 300 300 300 300 299 299 299 299 299 299 300 299 299 299 299 299 299 298 297 297 296 295 295 295 295 295 296 296 296 297 297 298 299 299 299 299 299 299 299 299 299 299 299 299 299 299 299 299 299 299 299 299 299 299 299 299 298 298 298 298 298 298 298 297 298 298 298 298 298 297 297 298 298 298 298 298 298 298 298
301 300 300 300 300 299 299 299 299 299 299 299 299 299 299 299 299 299 299 298 299 299 298 298 298 298 297 296 295 295 295 295 295 296 296 297 297 298 299 299 298 298 298 298 298 298 298 298 298 298 298 298 298 298 298 298 298 298 298 298 298 298 298 298 298 297 297 297 297 297 297 297 297 297 297 297 297 297 298 297 297 297 297 297 297
299 300 300 300 300 299 299 299 298 298 299 299 298 298 299 298 299 299 298 298 298 298 298 298 298 298 297 297 296 296 295 295 295 296 296 296 297 297 298 298 297 297 297 297 297 297 297 297 297 297 297 297 297 297 297 297 297 297 297 297 297 297 297 297 297 297 297 297 297 297 297 297 297 297 297 297 297 297 296 296 295 295 295 295 296
297 298 298 298 299 299 299 298 298 298 299 299 298 298 298 298 298 298 298 298 297 298 298 297 297 297 297 297 297 297 296 296 295 295 296 296 296 296 296 296 296 296 296 296 296 296 296 296 296 296 296 296 296 296 296 296 297 296 296 297 297 296 296 296 296 296 297 297 296 296 296 296 296 296 296 296 296 296 296 295 295 295 294 294 294
297 297 297 297 298 298 298 298 298 298 298 299 298 298 297 298 297 298 297 297 297 297 298 297 296 295 295 296 296 297 297 296 296 296 295 295 296 296 296 296 296 296 296 296 296 296 296 296 296 296 296 296 296 296 296 296 296 296 296 296 296 296 296 296 296 296 296 296 296 296 296 296 296 295 295 296 295 295 295 295 295 294 294 293 292
298 297 297 297 298 298 298 298 298 298 298 298 298 298 297 297 297 297 297 297 297 297 297 297 296 295 295 295 295 296 297 297 296 296 296 295 295 296 296 296 296 295 295 295 295 295 295 295 295 295 295 295 295 295 295 295 295 295 296 296 296 296 296 296 296 296 296 296 296 296 296 296 296 295 295 295 295 294 294 294 293 293 293 292 291
299 298 298 298 298 298 298 298 298 298 298 297 297 297 297 297 297 297 297 296 297 297 297 297 297 296 295 294 294 295 296 296 296 296 296 295 295 295 295 295 295 295 295 295 295 294 294 295 295 295 294 294 294 294 295 295 295 295 295 295 295 295 295 295 295 295 295 295 295 295 295 295 295 295 295 294 294 294 293 293 293 292 292 292 292
299 299 298 298 298 298 298 298 298 298 298 297 297 297 297 297 297 297 296 296 296 296 296 297 297 296 295 295 295 295 296 296 295 295 295 295 295 295 295 295 295 294 294 294 294 294 294 294 294 294 294 294 294 294 294 294 294 295 295 295 295 295 295 294 294 294 294 295 294 294 294 294 294 294 294 294 294 294 294 293 293 293 292 292 292
298 298 298 298 298 298 298 298 298 297 297 298 297 297 297 297 297 297 297 296 296 296 296 296 296 296 296 296 295 295 296 296 295 295 295 294 294 294 294 294 294 294 293 293 293 293 293 293 293 293 293 293 293 294 294 294 294 294 294 294 294 294 294 294 294 294 294 294 293 293 293 294 294 294 294 294 294 294 293 293 293 293 292 292 292
298 298 298 298 298 298 298 297 297 297 297 298 298 297 297 297 297 297 297 297 296 296 296 296 296 296 296 296 296 296 296 295 295 295 294 294 294 294 294 294 293 293 293 293 293 292 292 292 292 292 292 293 293 293 293 293 293 294 294 294 293 293 294 293 293 293 293 293 293 293 293 293 294 294 294 293 293 293 293 292 293 293 293 292 292
299 298 298 298 298 298 298 297 297 297 297 298 298 297 297 297 297 297 297 297 296 296 296 297 296 296 296 296 296 296 296 296 295 295 294 294 294 294 294 294 293 293 293 292 292 292 291 291 291 291 291 291 291 292 292 292 293 293 293 293 293 293 293 293 292 292 292 292 293 293 293 293 293 293 293 293 292 293 293 292 292 292 292 292 292
299 298 298 298 298 298 298 297 297 297 298 298 297 297 297 297 297 297 297 297 296 296 297 297 297 297 297 297 297 296 296 296 296 295 295 294 294 294 294 293 293 293 293 292 292 291 291 290 290 289 289 289 289 289 289 290 291 292 292 293 292 292 292 291 291 292 292 292 292 292 293 293 293 293 293 292 292 293 293 292 292 292 292 292 291
299 298 298 298 298 298 298 297 297 297 298 297 297 297 297 297 297 297 297 297 297 297 297 297 297 297 296 296 296 296 296 296 296 296 296 295 294 294 294 294 293 293 293 292 292 292 291 290 289 289 288 287 286 286 286 287 288 289 290 290 291 291 291 291 291 291 291 291 291 292 292 292 292 292 292 292 292 292 292 291 291 291 291 291 291
299 298 298 298 298 298 298 298 298 298 298 297 297 297 297 297 297 297 297 297 297 297 296 296 296 296 296 296 296 296 296 296 296 296 296 295 295 295 294 294 294 293 293 293 292 292 291 291 289 288 288 287 285 284 284 285 285 285 286 286 287 287 288 289 290 290 291 291 291 291 291 291 291 291 291 291 291 291 291 291 291 291 290 290 291
298 298 298 298 298 298 298 297 298 298 298 297 297 297 297 297 297 297 297 297 296 296 296 296 296 296 296 296 296 296 296 296 296 296 296 295 295 295 295 294 294 294 293 293 293 292 291 291 290 289 288 287 285 284 284 284 284 284 284 284 283 283 283 284 286 287 288 289 290 290 290 290 290 290 290 290 290 290 290 291 291 291 291 291 291
298 298 298 298 297 298 298 297 298 298 298 298 297 297 297 297 297 297 297 296 296 296 296 296 296 296 296 296 296 296 296 296 296 296 295 295 295 295 295 294 294 294 293 293 293 292 292 291 290 289 288 287 286 284 284 284 284 283 283 282 282 281 281 282 282 283 284 285 288 289 290 290 290 290 290 290 290 289 289 290 290 290 291 291 291
297 298 298 298 297 298 298 298 297 298 297 297 297 297 297 297 297 297 296 296 296 296 296 296 296 296 296 296 296 296 296 296 296 296 295 295 295 295 295 295 294 294 294 294 293 293 292 292 291 289 288 288 287 285 284 284 284 283 282 282 282 281 281 282 282 282 282 283 285 288 289 289 289 289 289 289 290 289 289 289 290 290 290 291 291
Wind_Speed
13 13 14 14 15 16 17 18 19 18 18 19 18 17 18 18 17 16 16 16 14 13 12 10 9 10 12 11 12 13 13 12 12 12 12 12 13 14 13 13 12 12 13 14 14 16 15 14 17 18 17 19 21 20 19 17 14 13 11 10 10 11 12 9 6 6 10 14 14 12 15 16 12 12 12 11 13 13 10 9 8 9 9 6 8
14 14 14 14 15 16 17 17 18 17 18 18 18 18 19 19 18 16 15 14 13 13 11 9 8 9 10 10 11 11 12 11 11 11 11 11 13 14 13 13 13 12 13 14 14 14 15 15 16 17 17 20 21 19 19 16 14 14 13 11 8 8 11 12 9 8 8 10 13 12 14 14 12 13 13 13 13 12 11 10 10 11 11 8 8
14 14 14 15 15 15 15 16 16 17 16 16 17 18 18 17 16 14 15 16 14 12 11 9 10 9 9 10 9 10 11 11 10 10 9 10 12 13 13 14 15 14 13 15 17 16 15 16 16 16 17 18 19 19 19 17 15 14 11 10 11 9 11 13 12 11 10 11 12 13 13 12 12 13 13 13 13 11 11 12 10 10 10 10 10
14 14 14 15 14 14 14 15 16 16 16 15 15 17 17 17 15 13 14 18 15 10 8 7 9 9 9 9 7 8 10 10 10 10 10 10 11 14 15 13 14 17 17 16 19 18 16 16 16 17 18 18 20 20 17 16 14 11 7 8 11 11 11 12 13 13 13 13 12 13 13 11 11 13 13 12 12 11 11 10 9 10 10 11 11
14 14 15 15 14 14 14 14 15 16 16 15 15 17 17 16 16 14 14 17 15 10 7 3 6 6 6 6 6 7 8 8 10 12 12 12 13 14 15 15 17 21 18 14 17 18 17 17 17 17 17 17 18 17 14 14 11 7 7 8 10 11 11 11 13 12 13 13 12 12 13 11 11 12 12 12 11 11 11 10 9 11 10 9 12
15 14 14 15 15 16 15 15 16 16 15 15 15 16 16 16 16 15 13 13 12 11 9 2 4 3 4 5 5 6 6 5 7 10 11 11 13 13 14 17 19 19 16 14 17 18 17 18 17 17 16 14 14 13 11 11 8 6 9 10 12 15 14 12 13 12 11 12 11 11 12 12 11 11 11 12 11 10 11 10 9 10 11 9 11
15 15 15 15 16 17 16 16 17 16 15 15 16 15 15 15 14 13 11 9 8 9 8 5 4 2 3 5 4 4 6 5 4 7 10 11 13 14 15 18 18 16 15 16 17 18 18 17 15 13 13 12 11 11 9 8 7 7 9 12 14 17 15 12 14 14 11 11 11 11 11 11 10 10 10 10 10 10 10 11 10 11 12 11 11
15 15 16 16 17 17 17 16 17 18 16 16 17 17 15 15 13 12 11 9 8 8 6 5 7 7 6 6 6 5 4 7 4 3 7 10 12 14 15 14 13 12 13 14 16 18 17 14 10 10 11 10 9 9 8 7 6 6 9 12 15 17 15 12 12 14 14 12 11 9 10 11 10 9 10 10 9 9 9 10 11 11 12 12 11
16 16 16 17 17 17 17 17 18 19 18 18 19 19 18 18 15 13 12 11 9 8 7 7 8 7 5 5 7 7 4 5 5 3 4 5 10 14 12 10 10 9 9 10 12 12 10 9 7 7 10 9 8 9 9 7 7 8 9 11 15 18 18 15 13 11 12 10 8 3 3 8 9 9 10 11 10 10 10 10 10 10 11 12 12
16 17 17 18 18 17 17 18 18 19 19 19 19 19 18 17 16 14 14 12 11 9 7 7 8 7 5 4 6 7 5 3 4 4 4 5 9 12 10 8 8 8 7 7 7 6 6 6 6 7 7 7 8 10 9 6 6 8 10 14 16 17 16 15 13 11 9 6 9 7 4 6 8 9 9 10 11 11 12 12 11 11 11 12 12
17 17 18 18 18 18 17 18 19 19 19 19 19 19 18 17 17 16 14 13 12 10 10 11 10 9 7 5 4 4 3 0 2 4 5 6 5 4 7 7 6 6 7 7 6 5 5 4 5 5 5 6 8 8 8 7 6 7 9 12 13 12 12 10 7 8 10 7 8 11 9 8 8 9 9 9 10 9 10 11 11 11 12 11 10
17 17 18 18 18 18 18 18 19 19 19 19 18 19 19 19 19 18 17 15 13 12 12 12 11 9 8 7 6 4 4 4 2 2 4 5 3 1 4 5 5 6 6 6 5 5 5 6 6 6 5 6 8 8 9 9 8 8 9 9 9 7 7 6 1 2 9 9 7 9 8 6 8 7 6 8 9 8 9 9 9 9 10 7 5
17 17 18 18 18 18 18 18 18 19 18 18 18 18 19 19 20 20 20 19 18 16 14 11 10 10 10 10 10 9 7 6 3 2 1 2 3 2 3 4 6 7 5 4 4 4 6 6 7 8 8 8 8 8 10 10 8 8 9 8 8 8 8 8 6 5 7 6 7 6 2 3 7 6 4 4 5 4 4 4 3 4 4 3 7
17 17 18 19 19 18 18 18 18 18 18 17 18 18 19 20 20 20 20 20 20 20 19 16 14 13 14 14 14 13 11 10 8 5 3 2 0 1 4 5 4 2 1 2 1 2 5 6 8 11 12 11 11 11 12 12 11 10 10 9 7 7 6 6 5 6 6 6 7 7 5 6 6 4 3 3 2 1 2 3 2 2 4 5 9
17 17 18 19 19 19 18 18 17 17 17 18 18 19 19 20 20 20 19 19 19 19 20 21 20 18 18 17 16 16 14 13 11 9 7 6 5 6 5 6 10 11 9 8 7 5 4 5 8 11 12 12 12 12 11 10 10 10 10 9 8 8 7 7 5 5 5 6 7 8 7 7 6 4 4 4 4 2 3 4 2 4 5 6 9
17 18 18 19 19 19 18 17 17 17 17 18 19 19 19 19 19 19 19 20 20 20 20 22 22 22 20 19 19 17 15 13 12 11 10 8 8 13 14 11 12 14 13 13 11 8 7 7 8 10 11 11 11 10 9 9 9 9 9 10 10 9 9 9 8 7 6 6 6 6 6 6 5 4 5 5 4 4 4 2 1 2 4 6 8
18 18 18 18 19 19 19 18 17 17 18 19 19 19 19 19 18 18 19 21 22 21 20 20 23 24 23 21 22 20 16 15 13 11 11 10 9 12 15 13 12 13 15 15 14 13 13 11 10 11 11 10 9 8 7 8 8 7 8 9 10 11 10 9 8 7 6 6 6 5 5 4 4 3 3 3 3 2 1 1 1 2 3 4 6
18 18 17 18 18 19 19 20 19 19 18 18 19 18 18 19 18 17 18 19 20 21 22 23 25 27 25 23 24 23 20 19 17 14 12 11 10 10 11 11 13 14 15 15 15 16 16 13 12 13 11 7 7 7 7 7 5 4 6 8 9 9 8 7 7 8 7 6 6 6 4 3 3 3 2 2 2 3 5 4 2 3 6 7 7
17 17 17 17 17 18 19 20 20 20 20 19 19 18 19 20 19 18 17 16 17 19 20 22 25 28 27 25 24 24 22 20 18 18 16 14 14 15 15 15 16 16 16 16 16 16 17 16 15 14 11 6 5 6 8 8 6 4 3 6 7 7 5 5 7 8 8 8 7 7 6 6 6 5 6 6 5 6 8 8 6 4 5 8 8
17 17 17 17 18 19 19 19 20 20 19 19 20 20 22 24 25 24 21 19 18 18 19 20 24 26 28 28 27 25 24 22 19 17 16 15 15 17 18 18 18 17 16 14 14 15 15 15 15 13 10 7 6 4 5 7 8 7 6 7 8 6 4 4 5 6 7 7 7 7 7 7 8 8 9 9 9 8 8 9 9 7 4 3 6
17 17 17 18 19 20 20 20 20 20 20 19 20 22 23 25 25 22 20 19 19 20 21 23 25 25 25 27 28 27 25 24 23 20 16 15 13 14 16 16 14 14 14 13 13 12 12 12 12 11 8 7 5 4 4 5 6 8 10 12 11 7 6 6 6 7 7 7 6 6 6 6 7 8 9 10 11 11 9 9 10 9 10 9 3
17 17 18 18 19 19 19 19 19 19 20 20 21 22 24 26 26 22 19 19 20 19 20 22 23 24 25 25 26 27 26 24 24 23 21 19 17 15 15 13 11 11 13 13 13 13 12 12 12 11 10 8 7 7 7 6 7 10 13 14 12 10 9 8 7 6 6 6 6 5 5 5 6 7 9 9 10 11 10 10 10 9 10 13 12
15 16 17 17 18 19 19 19 19 19 19 20 20 21 22 25 27 26 23 20 20 19 19 18 19 22 26 27 26 26 25 24 24 25 24 23 21 19 17 14 11 11 12 14 14 14 13 14 14 13 12 11 12 11 11 12 13 15 15 14 13 11 10 8 7 7 7 7 6 6 5 5 5 7 8 9 9 10 10 11 11 11 10 12 14
14 14 15 15 16 17 17 18 19 19 19 20 20 20 20 20 21 23 22 20 19 18 18 17 17 18 21 25 26 24 23 23 23 24 24 24 23 22 21 18 15 13 14 15 15 14 14 15 14 13 12 13 14 13 14 15 17 16 15 14 13 12 10 10 10 10 9 7 7 7 6 6 7 8 9 9 8 8 9 9 10 12 12 12 13
14 14 14 15 15 15 16 16 16 17 17 18 19 20 20 20 19 19 19 18 17 17 16 15 15 15 15 18 21 22 21 21 21 22 22 23 23 22 22 21 19 17 16 16 15 14 14 13 13 13 12 12 13 14 15 17 16 15 15 14 13 12 11 10 9 8 7 6 5 6 6 7 8 8 7 6 5 5 6 7 7 9 10 12 13
15 15 15 15 15 16 16 16 17 17 16 16 17 18 19 20 20 19 18 17 17 16 15 15 14 14 14 14 15 18 19 20 19 19 20 20 21 20 20 19 19 17 16 15 14 14 13 12 11 11 11 11 13 14 15 15 13 13 12 10 10 9 8 8 8 6 5 5 5 5 6 6 6 6 5 4 3 3 4 4 5 6 7 8 10
14 14 14 14 15 15 16 16 17 19 19 18 17 17 19 20 21 21 20 19 17 16 15 15 15 15 14 13 13 15 18 20 20 19 18 18 18 17 17 16 15 15 14 14 13 12 11 10 10 10 9 10 12 13 12 12 11 11 10 9 8 8 7 7 8 7 5 5 5 6 6 6 5 5 4 4 4 5 3 2 4 4 4 4 6
13 13 13 13 13 14 14 14 15 17 19 21 20 18 18 19 21 23 23 21 19 17 16 14 14 14 15 14 13 13 17 21 23 21 20 18 15 14 14 14 13 12 12 12 11 10 10 9 8 8 7 8 9 10 9 10 10 10 10 10 9 9 8 7 7 7 6 5 5 5 5 5 5 5 5 5 5 4 3 3 3 4 3 2 4
12 12 12 12 12 12 12 12 12 13 15 19 22 22 20 19 19 22 26 26 24 21 19 16 14 14 15 16 15 13 15 19 21 21 20 19 17 15 15 14 13 11 10 9 8 7 8 7 6 5 5 6 7 7 7 8 8 9 9 9 9 8 8 7 7 6 6 5 4 4 4 5 5 5 5 5 5 4 4 3 2 2 3 3 3
12 12 12 11 11 11 11 11 12 11 11 12 17 20 22 21 20 21 23 25 26 26 25 21 16 13 13 16 18 16 16 18 20 20 20 18 17 16 15 14 13 12 10 8 7 7 6 6 5 6 5 5 6 6 6 6 7 7 7 7 8 8 8 7 7 6 5 4 3 3 3 4 4 4 5 5 4 5 5 4 3 3 3 3 4
11 11 12 11 11 11 11 11 12 12 11 10 10 12 14 16 18 19 20 20 22 25 27 25 21 16 13 13 15 16 16 17 18 19 19 17 15 14 13 12 11 11 11 9 8 8 7 6 6 6 6 5 5 5 5 6 6 6 6 7 7 7 7 6 6 5 5 4 3 2 2 2 2 4 5 4 4 5 4 3 3 2 2 3 4
11 11 11 11 11 11 11 11 12 12 12 12 11 9 9 10 12 13 14 15 17 21 25 26 25 22 17 13 12 13 14 14 15 17 18 17 15 14 14 13 10 10 10 10 8 8 7 7 7 7 6 5 4 4 4 4 3 3 5 5 4 5 4 4 3 2 3 3 2 3 3 2 3 4 3 2 3 4 4 3 4 6 5 5 5
12 11 10 9 10 11 11 11 12 12 12 12 12 12 11 10 8 8 8 8 10 15 21 25 26 25 23 18 13 11 13 13 12 14 15 15 14 14 15 14 13 11 8 6 6 6 5 4 4 5 5 4 3 3 3 3 2 3 3 3 2 3 2 1 2 2 3 3 2 2 3 3 3 3 3 3 4 4 4 5 5 5 6 7 6
13 13 13 11 10 11 12 11 11 12 12 12 12 12 11 11 11 9 7 5 6 10 16 21 23 25 27 23 16 12 12 11 11 12 13 12 10 9 8 8 8 9 8 7 6 7 6 5 5 6 5 3 3 3 3 2 3 3 3 3 2 1 0 1 2 2 2 3 2 2 4 4 4 4 4 4 4 3 3 5 7 6 5 6 5
11 12 14 13 12 12 12 12 12 12 12 12 13 13 12 11 11 12 12 10 9 10 12 14 16 20 24 25 23 19 16 14 12 12 11 10 9 9 8 6 8 10 11 10 10 9 10 10 9 9 9 7 6 6 5 4 3 2 2 2 1 1 0 0 1 2 3 3 3 3 4 4 4 4 4 4 5 5 4 5 6 5 5 5 5
10 10 11 12 12 12 12 12 12 12 12 12 12 12 12 12 11 12 13 13 12 13 13 12 12 13 16 21 24 24 22 20 18 16 15 13 13 13 11 10 11 11 11 10 10 10 9 10 10 9 9 9 8 7 6 5 4 4 4 2 1 1 1 1 1 2 2 3 4 4 3 3 3 3 4 4 4 4 4 4 4 5 5 4 4
10 10 10 10 10 10 11 11 11 10 10 12 12 12 12 12 11 11 12 13 13 13 14 14 13 13 13 15 18 19 19 20 20 19 18 17 16 15 14 12 11 10 10 10 10 10 9 9 9 8 8 7 6 6 5 5 4 5 5 4 3 3 3 3 2 2 3 4 4 3 3 4 3 3 5 5 5 5 5 4 4 5 6 5 3
13 13 14 13 11 10 10 11 10 10 10 11 12 12 12 12 11 11 12 12 13 13 14 14 15 15 14 14 14 14 14 16 17 17 16 15 15 14 13 13 12 11 11 10 10 10 9 9 8 8 7 7 6 6 5 5 4 4 3 3 3 2 1 3 3 2 3 4 4 4 4 4 4 4 4 5 6 6 6 5 5 5 5 3 3
13 13 12 12 11 11 11 10 11 11 11 10 11 11 11 11 12 12 12 12 12 13 13 13 14 15 15 14 14 15 13 13 14 15 14 14 14 13 12 12 12 12 11 11 11 10 9 9 9 8 8 7 6 6 5 5 5 4 3 2 2 2 3 4 3 3 4 4 4 4 4 4 4 5 4 4 5 6 5 5 5 5 5 5 5
10 10 9 8 8 10 10 10 11 11 11 11 11 11 11 11 11 11 12 12 12 12 12 12 11 13 14 14 13 15 14 13 13 13 13 13 13 13 12 12 12 11 11 11 11 10 9 9 8 8 8 7 7 6 5 4 4 3 2 2 2 2 2 2 2 2 2 2 2 3 3 3 3 4 4 5 5 5 5 5 5 5 5 5 5
8 9 10 9 8 9 9 9 11 11 11 11 11 11 11 11 11 11 11 12 11 12 12 11 10 10 12 14 13 12 12 12 12 12 12 12 12 12 12 11 11 11 11 11 11 10 10 9 8 7 7 7 6 6 5 4 3 3 2 2 2 2 2 2 2 2 2 2 2 3 2 2 2 4 5 5 5 5 5 5 5 5 4 4 4
7 7 8 8 8 8 8 9 10 10 10 10 11 10 10 10 10 10 10 10 11 11 11 12 10 8 9 12 13 11 10 11 11 11 11 11 11 11 11 11 11 11 11 11 10 9 9 9 8 7 6 6 6 6 5 4 4 3 2 2 2 2 2 2 2 1 1 1 0 2 5 6 5 6 4 3 3 4 4 4 4 4 4 4 3
7 6 7 7 7 7 7 8 9 9 9 8 8 9 10 9 9 10 10 9 10 10 10 10 11 9 7 9 11 11 11 11 11 11 11 11 11 11 10 10 10 11 11 10 9 9 8 8 8 7 5 5 6 6 5 5 5 3 2 2 2 1 1 2 2 0 1 1 1 1 4 4 2 3 2 2 2 3 3 3 3 3 3 3 2
5 5 6 6 6 6 6 7 7 8 7 5 4 6 8 8 9 10 10 10 10 10 9 9 10 10 9 8 9 10 11 11 10 10 10 10 10 10 10 9 10 10 10 9 8 8 8 7 6 6 5 5 5 4 4 5 4 4 3 3 2 2 1 1 1 3 4 2 1 2 1 1 0 2 3 1 1 2 3 2 1 1 1 2 2
4 4 4 5 5 4 5 6 6 6 6 5 5 6 7 8 8 8 9 10 11 10 9 9 9 9 10 10 10 10 10 10 10 10 9 9 9 9 9 9 9 10 9 8 7 7 7 7 6 5 5 5 5 5 4 4 3 4 4 3 3 2 1 1 2 3 2 2 3 1 1 2 0 1 2 2 1 2 3 2 2 1 1 1 2
4 3 2 4 4 4 5 6 6 5 5 6 6 7 7 7 8 8 8 9 9 9 9 9 9 9 10 9 9 9 10 10 9 9 8 8 8 8 8 8 9 9 8 7 6 6 7 6 5 5 5 5 5 5 5 4 3 3 3 3 3 3 1 0 1 3 3 3 4 4 2 1 1 1 1 0 1 1 2 2 1 1 1 0 1
3 2 2 3 4 3 4 5 4 3 5 6 6 6 7 7 7 7 7 7 7 8 9 9 9 10 10 10 9 9 9 9 8 8 8 8 7 7 7 7 7 8 8 7 5 6 6 5 4 4 4 5 5 5 4 4 3 2 2 2 4 5 4 4 2 3 3 4 3 2 2 2 3 1 2 2 2 1 1 1 1 1 1 1 1
2 2 2 2 3 3 3 4 2 2 4 5 5 5 6 6 7 7 8 7 8 8 9 9 9 10 10 10 10 9 9 9 8 7 7 7 7 7 7 6 6 7 8 6 5 5 5 4 4 3 4 4 5 3 3 4 3 2 2 4 7 8 8 8 7 6 5 5 3 3 3 3 3 3 1 0 2 2 1 2 2 2 3 3 2
1 2 2 2 3 3 3 4 4 4 4 5 5 6 6 7 7 7 8 8 9 9 9 10 10 10 10 10 10 10 9 8 8 7 6 7 7 7 7 6 5 6 7 7 6 5 4 4 5 4 3 3 4 3 3 3 3 3 5 7 8 8 8 9 10 11 10 7 5 4 4 4 3 3 3 2 3 3 3 3 2 2 3 2 2
1 1 1 1 2 3 3 3 4 5 4 5 6 6 7 7 7 7 8 8 9 9 10 10 10 10 10 10 10 10 9 8 8 8 7 7 7 7 7 7 6 6 7 8 7 5 4 5 6 5 4 3 4 3 2 2 3 5 7 9 8 8 9 9 10 11 11 10 8 5 4 4 3 3 3 3 3 3 4 3 3 3 3 3 3
1 1 2 2 2 4 4 4 5 6 5 6 6 7 7 7 8 8 8 9 9 9 10 10 9 10 10 10 10 10 10 9 9 9 9 8 8 7 7 7 7 7 7 8 8 7 6 5 5 4 3 3 4 3 2 3 5 8 9 10 10 9 10 10 9 9 10 12 11 8 4 4 4 4 4 3 3 4 5 5 4 4 5 4 4
Wind_Direction
339 337 333 326 321 318 316 314 312 312 315 321 325 323 318 311 305 293 277 262 248 241 240 229 216 208 197 187 182 181 181 186 194 197 199 205 215 222 221 214 211 209 201 195 197 199 194 194 202 208 214 218 215 214 218 223 226 224 217 208 191 163 159 166 167 157 152 164 177 173 162 160 162 167 154 145 155 151 150 177 180 156 153 164 179
343 340 335 329 323 319 318 319 318 319 319 323 330 330 326 323 318 309 292 272 250 240 237 216 200 199 186 175 173 174 174 175 178 185 193 205 217 226 224 212 207 210 206 202 203 203 200 200 204 207 211 214 209 207 214 221 222 219 210 204 198 163 156 167 162 150 152 165 175 171 164 165 163 160 154 149 159 162 156 161 163 160 161 161 175
345 342 337 333 329 323 323 325 325 326 324 327 335 334 330 326 320 315 307 290 266 248 238 204 184 185 174 167 171 172 172 172 173 181 194 211 223 230 228 216 210 211 210 208 206 202 201 205 206 204 206 209 207 208 214 217 215 216 207 190 190 171 157 168 163 155 164 169 171 171 167 169 163 155 155 155 162 167 160 160 168 171 166 159 169
348 345 341 338 336 333 332 331 332 335 333 334 339 336 331 325 318 321 316 301 285 268 249 196 168 174 171 163 165 167 170 170 172 183 197 209 222 230 227 215 210 216 218 213 205 200 201 206 205 203 204 207 209 209 212 213 208 203 184 171 181 172 156 166 168 165 168 168 171 170 163 166 165 157 156 157 164 171 164 164 170 165 162 164 172
352 351 349 347 345 344 341 338 341 344 341 341 341 336 335 333 331 337 329 310 303 297 277 194 144 155 159 157 168 172 167 165 177 190 194 197 210 222 222 212 208 214 219 215 208 205 205 207 206 203 203 205 208 205 203 208 204 176 152 154 172 170 153 161 180 180 168 164 167 161 157 164 164 158 159 158 165 174 166 166 172 165 167 174 172
1 359 358 356 355 353 350 346 348 350 348 344 341 337 338 342 344 347 339 320 315 309 300 332 100 133 137 133 159 166 153 156 190 197 183 186 208 219 218 216 214 213 212 211 210 207 205 207 206 202 199 202 206 202 200 202 191 158 153 162 182 185 166 163 190 193 170 163 165 159 162 169 163 162 168 163 165 175 167 165 176 170 169 173 168
8 8 7 5 3 2 358 354 353 357 357 350 347 346 345 348 351 349 344 336 336 328 317 344 31 58 104 109 119 127 135 142 181 199 177 175 201 217 219 219 215 208 206 210 209 204 203 204 204 199 196 201 202 195 189 185 173 167 166 167 182 187 174 173 187 180 164 164 171 170 170 171 166 169 175 168 168 176 169 168 178 176 174 179 172
13 13 14 11 9 7 5 2 0 3 4 359 358 359 358 1 4 357 349 350 359 2 1 29 49 57 66 80 84 79 120 139 134 200 196 185 203 220 225 222 213 201 201 203 201 201 199 195 195 192 186 187 189 181 175 163 161 178 177 171 178 177 174 191 194 175 168 172 176 179 172 169 176 181 178 175 180 186 180 177 182 179 177 186 188
18 18 17 14 10 10 10 10 8 8 10 10 9 9 8 10 15 11 4 6 14 23 34 53 66 69 57 69 90 83 93 134 140 197 219 216 234 237 228 213 204 197 197 201 200 194 177 163 166 170 172 176 176 176 177 157 150 173 176 171 179 177 176 192 200 182 174 165 141 127 195 179 179 191 185 180 189 195 188 186 190 189 184 188 197
21 19 19 16 12 13 14 14 14 13 14 14 13 14 13 12 14 16 15 15 18 25 33 45 62 76 69 72 103 101 96 136 179 204 208 230 252 246 220 199 195 189 190 202 201 175 148 157 167 157 157 165 165 173 181 164 149 170 170 166 181 194 194 193 193 181 172 149 121 134 227 223 186 199 203 190 198 200 190 192 197 196 196 195 198
23 21 19 17 15 16 17 17 17 17 17 18 17 18 18 17 16 19 23 26 29 36 48 58 66 77 81 73 87 100 79 12 217 206 216 243 271 246 200 194 196 194 194 195 187 161 148 167 168 150 152 163 165 169 175 170 156 157 162 160 171 200 210 200 199 178 160 146 133 158 206 231 199 204 212 204 210 204 192 199 200 197 205 205 195
25 24 21 19 19 20 19 19 21 20 19 20 21 22 24 24 23 24 29 37 44 49 55 63 67 67 65 58 54 47 9 339 302 199 215 243 278 257 208 208 201 207 210 198 182 159 155 157 141 138 159 170 175 182 182 185 184 170 171 164 146 153 165 155 153 156 149 151 159 173 201 208 186 196 211 216 222 211 205 215 211 211 217 200 172
28 25 23 22 22 22 23 24 24 23 23 23 25 28 29 29 29 30 35 45 54 57 59 66 71 63 55 51 46 40 28 15 21 73 165 230 239 258 279 260 227 221 213 193 187 175 166 157 129 126 140 139 144 159 157 156 160 157 157 150 131 124 127 124 110 92 103 128 160 170 173 137 159 178 186 192 202 196 216 239 233 270 297 102 119
31 27 25 25 25 24 26 27 27 26 27 29 30 32 32 31 31 32 37 45 50 51 55 61 66 65 61 58 53 47 44 45 46 44 35 31 17 283 301 308 312 307 39 81 100 140 152 157 144 131 125 118 120 130 131 128 127 121 111 109 119 125 122 122 125 110 81 70 105 122 91 89 116 132 124 111 73 88 242 258 232 289 345 79 124
32 29 27 27 26 26 27 28 29 29 30 33 35 35 34 32 31 32 37 43 44 45 51 57 62 65 64 61 56 49 45 48 49 40 31 42 52 37 12 7 30 43 50 57 68 90 118 144 145 129 120 120 124 128 129 124 121 114 102 100 110 115 109 102 100 107 103 89 99 116 120 117 119 121 122 104 63 92 202 226 183 165 161 145 142
33 31 30 29 27 28 29 30 32 33 34 36 37 36 35 32 31 34 39 45 47 46 47 51 55 59 61 60 58 54 47 48 55 51 45 50 49 43 46 50 52 55 57 60 71 89 102 107 105 105 116 123 119 120 125 123 118 114 106 100 99 96 92 92 92 94 103 108 110 119 131 138 141 146 154 147 113 115 168 185 123 155 167 151 131
36 34 32 31 31 31 33 34 37 37 37 39 39 38 37 35 34 36 41 45 48 47 46 47 50 54 58 58 58 58 50 44 51 58 57 60 59 55 58 61 60 63 66 65 67 73 82 92 93 98 111 110 98 100 111 116 119 117 110 101 91 82 76 78 87 92 91 94 101 110 124 134 134 139 161 170 147 121 126 121 29 21 65 93 108
39 37 35 35 34 35 37 40 43 43 41 42 42 40 40 39 38 40 43 44 47 50 52 53 54 57 58 58 59 62 57 49 51 58 61 65 72 76 77 76 74 75 77 75 70 67 71 78 89 100 103 85 76 79 73 82 106 115 115 109 87 75 71 68 76 81 75 74 79 82 90 97 95 97 89 76 85 80 69 67 68 80 93 102 117
42 42 41 40 37 37 40 43 46 48 48 48 48 48 49 48 46 46 47 45 47 52 54 54 56 57 57 57 58 61 61 56 55 60 65 70 78 85 89 90 88 85 82 82 77 71 71 73 78 91 95 82 79 72 53 55 57 37 69 100 85 72 69 65 70 70 61 60 65 63 64 72 75 76 71 62 62 69 71 71 64 66 97 112 126
49 50 49 48 46 45 45 46 47 48 49 49 52 56 60 62 59 54 52 50 49 50 51 53 54 54 54 54 54 55 56 54 52 57 63 68 77 86 89 89 90 89 87 86 81 71 66 65 67 72 78 77 75 60 43 51 51 38 46 75 83 78 74 78 83 77 69 68 70 72 73 73 72 69 65 60 57 57 67 73 61 45 56 108 156
56 58 58 56 53 52 51 51 51 50 49 49 51 53 57 63 62 55 51 49 48 46 47 51 53 51 50 52 52 51 52 51 51 53 56 60 69 81 85 86 90 93 91 86 82 74 63 61 64 63 64 70 73 69 59 56 55 57 65 79 89 88 78 81 82 76 77 78 75 75 74 71 73 72 67 64 59 53 57 65 61 53 46 31 30
64 65 64 61 58 55 53 52 53 52 50 50 52 50 52 57 59 56 51 49 46 45 45 46 49 48 47 49 51 51 52 52 52 53 54 56 59 64 72 81 92 99 94 86 84 82 74 69 68 64 63 70 75 76 75 74 78 79 81 88 95 89 76 75 74 69 71 71 66 67 71 74 79 77 71 70 66 58 54 55 54 60 61 49 51
68 67 64 61 60 57 55 53 53 52 51 51 51 49 47 50 53 52 50 46 43 42 42 42 45 46 45 46 48 50 52 52 52 53 52 54 57 58 59 66 78 88 86 83 84 86 82 77 74 71 72 76 78 82 88 93 93 91 90 91 88 78 68 61 61 66 68 63 59 61 68 80 86 82 76 74 70 64 62 61 59 61 68 68 68
67 65 61 60 60 58 56 55 55 54 53 51 50 47 42 42 43 42 42 41 39 38 37 38 40 42 42 43 44 46 49 50 52 55 54 52 54 57 59 60 65 73 76 79 83 85 84 82 80 78 78 80 83 88 91 91 89 88 90 89 81 71 62 54 54 59 59 59 61 57 53 59 70 76 78 78 80 79 75 72 69 66 66 71 73
65 63 59 58 58 58 57 55 53 53 52 51 50 45 40 38 36 34 33 34 36 37 35 37 40 39 38 39 38 39 44 47 50 53 55 54 53 55 59 60 63 68 71 73 76 78 78 80 82 82 81 82 85 87 86 86 88 88 88 84 74 66 60 55 54 55 54 58 68 67 61 63 69 75 82 90 102 104 92 83 80 78 76 73 71
65 64 63 61 59 59 59 57 53 51 49 49 49 47 43 40 37 33 30 30 32 33 33 35 37 36 37 38 33 32 37 44 48 50 53 55 54 54 56 59 62 66 68 68 68 70 72 74 76 81 86 87 87 87 87 87 87 84 78 71 65 65 67 66 64 63 63 66 73 79 80 79 79 82 86 96 98 88 89 100 101 101 103 96 86
66 66 64 63 62 60 59 59 56 52 48 46 46 46 46 44 41 36 31 27 26 27 29 32 34 33 33 33 33 32 33 37 42 44 47 51 53 53 55 57 60 64 66 64 61 60 62 66 71 80 92 95 93 91 90 88 84 79 74 72 69 69 76 82 78 74 73 76 80 86 88 89 94 95 88 89 90 79 74 97 106 106 116 115 102
71 71 67 65 64 62 61 61 60 59 55 51 49 47 47 48 47 45 41 36 32 30 27 27 30 34 33 30 30 32 32 34 37 38 39 43 49 53 57 58 56 57 61 63 64 64 65 68 73 82 88 88 87 91 96 99 99 97 92 87 80 73 72 80 83 76 69 73 87 97 103 105 104 102 97 97 99 98 90 90 102 115 131 132 117
69 70 68 66 65 62 61 60 61 66 68 65 62 58 56 57 58 56 52 49 46 44 42 36 33 37 39 35 36 38 34 35 39 40 38 40 45 50 55 56 53 52 53 56 60 64 68 71 74 75 74 75 80 90 100 105 105 103 98 89 82 77 75 75 74 67 62 69 80 86 101 110 110 115 119 106 90 95 110 113 118 144 164 155 138
69 65 62 60 59 57 57 56 56 60 71 81 82 75 67 63 62 60 56 52 48 47 48 47 46 53 52 41 40 48 49 44 43 42 39 38 40 43 45 46 47 48 46 47 51 52 53 61 66 60 57 64 71 77 87 95 94 92 93 88 82 80 78 72 66 62 64 71 81 93 118 142 153 146 131 111 95 104 122 130 129 145 166 150 131
71 68 63 56 52 54 55 53 53 53 54 64 83 90 85 76 67 60 56 53 49 45 42 42 43 53 62 54 44 48 54 51 44 39 37 37 37 37 36 35 36 38 38 41 48 50 46 48 51 48 48 55 63 69 75 80 82 79 76 76 74 71 71 71 71 74 76 74 86 120 133 153 147 121 112 126 137 129 127 141 145 154 169 150 134
66 68 69 63 56 54 55 53 52 52 51 48 48 56 74 86 85 76 64 56 52 47 42 39 38 39 45 49 45 43 44 42 37 35 34 36 40 40 37 33 34 41 46 50 53 51 49 51 51 47 46 47 51 60 63 59 64 71 69 66 59 48 53 72 84 92 107 114 134 150 133 103 100 106 106 133 133 108 91 83 39 22 46 106 116
57 53 57 63 61 56 54 54 52 49 49 48 44 40 42 48 64 84 86 75 67 59 50 43 40 38 34 32 32 35 33 30 29 30 30 35 43 47 44 44 48 52 55 59 65 62 58 61 57 48 44 44 44 47 46 32 16 20 30 32 24 19 30 55 29 23 66 88 91 131 128 107 99 104 87 70 80 88 94 105 84 47 62 100 110
63 51 46 52 59 56 52 51 51 50 48 47 45 43 40 38 39 45 53 66 83 78 63 50 44 40 36 32 30 29 26 21 20 22 26 33 41 39 33 35 44 45 37 28 32 37 30 24 30 30 24 24 36 30 10 358 2 6 3 356 357 8 26 52 37 54 101 110 102 120 131 127 129 130 116 101 105 105 99 117 134 135 122 120 130
73 63 52 51 55 54 52 49 46 46 47 46 44 40 38 38 40 40 36 30 31 47 57 54 47 42 39 37 37 34 30 28 26 24 27 29 20 4 354 0 22 31 30 24 21 22 18 17 23 26 19 15 18 13 0 354 354 350 340 331 331 330 222 131 94 119 143 148 136 132 141 152 151 138 129 133 140 138 132 132 136 135 136 145 150
69 69 63 61 60 56 54 52 47 44 43 43 43 42 38 36 38 42 40 31 24 30 38 41 39 38 37 40 41 39 37 38 39 39 41 37 24 15 19 31 37 36 33 29 26 25 24 23 22 22 20 18 13 6 0 358 354 350 351 359 51 54 54 80 127 143 139 133 133 138 146 154 142 115 109 121 128 124 114 101 75 51 52 74 84
59 58 53 58 66 65 60 54 48 45 46 45 42 40 40 38 37 40 42 36 28 30 35 34 30 26 28 34 39 40 41 41 40 40 41 39 35 34 35 36 37 37 37 36 30 27 29 29 24 21 22 19 12 8 8 9 6 0 0 11 28 30 37 60 98 139 142 129 128 134 133 130 130 131 134 137 133 119 104 88 68 58 57 57 56
64 62 55 51 56 62 61 57 49 44 46 51 48 41 39 40 37 37 41 39 32 30 34 37 34 27 21 19 19 22 32 39 37 35 35 35 36 40 39 33 29 29 30 31 29 26 26 25 20 18 20 18 17 20 21 18 20 20 16 20 25 34 97 113 113 132 140 132 134 143 146 143 139 133 132 134 131 129 131 131 122 116 107 77 54
71 73 68 61 58 57 55 53 50 44 40 45 49 46 42 40 38 36 36 36 34 31 32 38 40 32 23 17 7 2 11 29 34 30 29 29 27 28 31 30 28 24 21 20 20 22 23 21 17 15 16 16 18 20 23 26 27 31 40 52 68 111 142 142 142 150 146 141 149 154 146 138 129 116 112 118 121 123 128 128 118 109 100 78 60
77 71 65 59 60 61 58 53 49 45 39 37 41 43 42 38 38 38 34 30 31 31 29 36 43 35 24 20 12 0 3 20 30 26 23 24 21 19 21 23 21 20 19 15 12 12 14 16 17 14 12 15 17 15 20 27 25 20 25 47 69 91 113 124 138 145 135 123 132 135 124 118 129 131 122 113 112 117 117 109 98 93 94 92 81
90 80 70 64 60 61 60 56 51 47 42 36 34 36 38 36 35 36 33 27 26 28 25 27 36 38 32 30 25 10 5 17 24 20 16 17 15 12 13 14 13 13 12 10 8 7 6 9 15 16 13 14 14 14 18 22 23 27 34 42 57 69 68 58 59 73 92 109 124 123 87 48 84 119 120 112 114 124 127 121 116 115 109 103 98
78 77 69 62 57 54 54 56 53 47 41 39 35 31 30 31 30 32 32 26 21 22 21 20 25 36 41 34 26 14 7 14 19 14 10 10 9 5 5 8 9 7 4 5 6 4 359 0 7 15 15 9 6 10 14 15 17 27 36 49 79 98 104 96 87 80 88 117 119 352 358 12 52 89 109 144 156 142 128 121 121 119 112 104 101
83 80 69 60 56 50 47 52 53 43 35 37 38 30 25 24 22 22 25 25 19 15 15 16 15 16 23 24 17 11 10 13 16 12 8 6 5 0 359 3 7 2 357 0 5 3 358 358 3 10 14 7 1 3 4 2 3 8 19 36 45 39 84 116 132 132 36 91 144 342 352 357 48 122 145 193 160 118 114 122 129 132 131 127 112
88 85 78 69 62 52 45 49 51 43 33 32 34 26 22 20 17 14 14 15 14 10 7 9 8 3 1 1 3 4 7 9 9 8 6 4 3 1 359 2 5 360 355 359 4 2 359 359 3 8 7 358 354 356 352 349 345 340 347 9 12 332 319 74 19 349 358 24 129 173 197 320 271 163 164 153 109 121 141 157 168 166 135 120 105
71 65 67 68 64 53 45 49 48 37 28 26 23 18 17 16 14 10 6 5 6 3 357 357 358 354 350 351 351 352 355 357 359 2 1 359 359 1 1 1 359 356 357 2 3 360 358 359 2 5 1 354 350 345 338 334 329 320 324 339 351 347 352 15 350 337 324 328 347 351 198 203 271 125 143 128 148 183 174 150 149 179 184 81 89
80 58 47 54 54 41 35 41 37 18 12 22 18 8 6 7 5 3 360 357 355 351 347 347 347 343 341 343 344 341 339 339 343 349 354 353 353 353 354 355 354 352 355 360 357 352 354 358 358 354 351 348 340 331 328 329 322 312 309 301 305 329 351 313 332 328 292 281 341 4 359 284 328 323 200 135 16 69 116 110 121 171 187 154 108
95 72 33 30 40 41 37 42 35 355 355 11 10 2 1 360 353 351 351 346 341 340 341 341 340 338 338 340 340 337 335 334 335 339 343 345 345 342 340 345 347 345 346 352 353 349 350 352 345 335 333 335 334 329 325 322 317 328 338 287 257 257 246 227 248 326 301 265 285 328 316 316 347 346 199 229 317 4 120 176 233 221 231 252 185
94 80 55 13 16 25 22 22 20 351 351 358 353 351 355 354 346 345 346 341 337 339 341 340 341 343 343 342 339 337 335 334 336 339 339 337 336 335 332 331 331 334 337 339 338 337 338 336 330 321 319 326 333 330 318 317 323 334 315 276 261 261 262 258 256 261 258 252 267 285 268 275 321 344 1 295 316 329 274 238 234 198 206 238 224
36 41 44 10 1 8 6 359 352 347 347 342 333 335 345 348 344 343 343 340 337 338 341 342 344 347 347 344 341 340 340 340 342 346 344 337 332 332 331 328 322 325 330 330 323 315 311 316 326 330 321 315 321 317 303 306 314 297 283 283 282 280 276 269 263 259 255 248 247 264 266 258 269 297 304 280 279 295 301 295 285 232 210 231 242
71 6 348 341 341 343 344 342 339 339 339 331 327 330 336 337 337 339 340 337 334 335 338 339 339 341 345 345 340 337 339 343 346 348 346 340 332 327 327 326 320 314 317 322 321 309 287 289 311 326 326 315 319 323 305 274 284 295 299 302 304 298 289 281 272 263 254 240 222 224 258 266 247 251 271 259 246 259 267 267 273 267 246 238 243
168 250 290 311 319 319 322 327 328 328 329 327 326 327 327 327 329 333 334 332 329 329 332 333 333 334 339 341 337 335 336 339 341 343 344 341 336 327 320 319 317 313 310 312 314 309 293 277 280 292 295 294 307 318 288 265 288 309 316 315 309 304 301 298 287 266 248 234 218 208 232 270 254 241 255 258 244 244 244 239 246 263 264 256 247